Algonquin Island, Ontario

12:24 PM EDT on March 19, 2019 (GMT -0400)
Algonquin Island

Weather History for 71265 - February, 2003

Change the Weather History Date:

Saturday, February 15, 2003

  Actual Average Record
Temperature  
Mean Temperature 8 °F -  
Max Temperature 12 °F 34 °F - ()
Min Temperature 5 °F 23 °F - ()
Degree Days  
Heating Degree Days 56    
Moisture  
Dew Point -9 °F    
Average Humidity 45    
Maximum Humidity 57    
Minimum Humidity 37    
Precipitation  
Precipitation 0.00 in 0.07 in - ()
Sea Level Pressure  
Sea Level Pressure 30.53 in    
Wind  
Wind Speed 10 mph ()    
Max Wind Speed 17 mph    
Max Gust Speed 22 mph    
Visibility 9.0 miles    
Events      
T = Trace of Precipitation, MM = Missing Value Source: Averaged Metar Reports

Daily Weather History Graph

Daily Weather History Graph

Search for Another Location

Airport or City:

Astronomy

Feb. 15, 2003 Rise Set
Actual Time 7:16 AM EST 5:47 PM EST
Civil Twilight 6:47 AM EST 6:16 PM EST
Nautical Twilight 6:13 AM EST 6:50 PM EST
Astronomical Twilight 5:40 AM EST 7:23 PM EST
Moon 4:13 PM EST (2/15) 6:53 AM EST (2/15)
Length of Visible Light 11h 29m
Length of Day
10h 30m
Waxing Gibbous, 98% of the Moon is Illuminated
Feb 15
Waxing Gibbous
Feb 16
Full
Feb 23
Last Quarter
Mar 2
New
Mar 11
First Quarter

Hourly Weather History & Observations

Time (EST) Temp. Windchill Dew Point Humidity Pressure Visibility Wind Dir Wind Speed Gust Speed Precip Events Conditions
12:00 AM 10.4 °F -1.5 °F -2.2 °F 57% 30.28 in 9.0 mi North 8.1 mph - N/A   Clear
1:00 AM 10.4 °F -1.5 °F -2.2 °F 57% 30.31 in 9.0 mi NNE 8.1 mph - N/A   Clear
2:00 AM 10.4 °F -2.4 °F -4.0 °F 52% 30.34 in 9.0 mi North 9.2 mph - N/A   Clear
3:00 AM 10.4 °F -2.4 °F -5.8 °F 48% 30.37 in 9.0 mi North 9.2 mph 17.3 mph N/A   Clear
4:00 AM 6.8 °F -10.0 °F -9.4 °F 48% 30.38 in 9.0 mi NE 13.8 mph - N/A   Clear
5:00 AM 6.8 °F -9.3 °F -11.2 °F 44% 30.38 in 9.0 mi NNE 12.7 mph 19.6 mph N/A   Clear
6:00 AM 6.8 °F -9.3 °F -11.2 °F 44% 30.42 in 9.0 mi NNE 12.7 mph - N/A   Clear
7:00 AM 5.0 °F -13.0 °F -9.4 °F 52% 30.44 in 9.0 mi NE 15.0 mph - N/A   Clear
8:00 AM 5.0 °F -11.6 °F -11.2 °F 47% 30.48 in 9.0 mi NE 12.7 mph - N/A   Clear
9:00 AM 6.8 °F -10.0 °F -11.2 °F 44% 30.52 in 9.0 mi NE 13.8 mph - N/A   Clear
10:00 AM 8.6 °F -7.7 °F -9.4 °F 44% 30.54 in 9.0 mi NNE 13.8 mph - N/A   Clear
11:00 AM 8.6 °F -7.0 °F -5.8 °F 52% 30.58 in 9.0 mi NE 12.7 mph - N/A   Clear
12:00 PM 10.4 °F -4.1 °F -5.8 °F 48% 30.59 in 9.0 mi East 11.5 mph 17.3 mph N/A   Clear
1:00 PM 10.4 °F -3.3 °F -9.4 °F 41% 30.58 in 9.0 mi ENE 10.4 mph - N/A   Clear
2:00 PM 12.2 °F -0.2 °F -7.6 °F 41% 30.57 in 9.0 mi ENE 9.2 mph - N/A   Clear
2:07 PM 12.2 °F -3.1 °F -7.6 °F 41% 30.54 in 9.0 mi North 13.8 mph - N/A   Clear
3:00 PM 12.2 °F -1.8 °F -7.6 °F 41% 30.58 in 9.0 mi NNE 11.5 mph - N/A   Clear
3:06 PM 12.2 °F -3.1 °F -9.4 °F 38% 30.56 in 9.0 mi NNW 13.8 mph - N/A   Clear
3:11 PM 10.4 °F -5.4 °F -9.4 °F 41% 30.56 in 9.0 mi NE 13.8 mph - N/A   Clear
4:00 PM 10.4 °F -3.3 °F -11.2 °F 37% 30.63 in 9.0 mi North 10.4 mph - N/A   Clear
5:00 PM 8.6 °F -7.7 °F -11.2 °F 40% 30.61 in 9.0 mi North 13.8 mph - N/A   Clear
6:00 PM 6.8 °F -8.6 °F -11.2 °F 44% 30.66 in 9.0 mi North 11.5 mph - N/A   Clear
7:00 PM 6.8 °F -8.6 °F -13.0 °F 40% 30.69 in 9.0 mi NNE 11.5 mph 17.3 mph N/A   Clear
8:00 PM 6.8 °F -5.9 °F -11.2 °F 44% 30.70 in 9.0 mi North 8.1 mph - N/A   Clear
9:00 PM 6.8 °F -11.8 °F -13.0 °F 40% 30.69 in 9.0 mi North 17.3 mph - N/A   Clear
10:00 PM 6.8 °F -8.6 °F -13.0 °F 40% 30.71 in 9.0 mi North 11.5 mph 21.9 mph N/A   Clear
11:00 PM 5.0 °F -13.0 °F -11.2 °F 47% 30.71 in 9.0 mi North 15.0 mph - N/A   Clear